Wind_Speed
23 20 18 19 17 17 16 15 15 14 12 13 13 12 12 13 11 9 10 10 9 10 11 10 10 10 9 9 7 7 7 7 7 7 8 6 6 4 4 6 7 9 10
21 19 21 18 17 16 16 15 13 12 11 12 12 12 13 11 9 8 7 7 8 8 10 10 9 9 8 8 8 8 9 9 9 8 5 3 2 2 5 6 8 9 11
23 20 18 19 18 16 16 15 14 13 12 12 11 11 11 12 9 8 8 10 10 10 9 10 9 9 9 9 10 10 11 11 11 10 4 6 3 4 8 7 7 9 11
23 22 20 19 18 16 15 14 13 13 13 12 12 12 10 10 8 8 9 13 9 10 9 10 11 11 11 11 11 11 12 10 9 8 8 2 6 5 12 8 7 8 10
22 21 19 20 20 18 15 13 13 13 12 12 12 11 11 10 9 9 11 10 8 9 10 10 12 13 12 11 11 11 9 6 6 3 4 6 4 3 4 4 7 9 10
20 20 19 19 19 19 16 16 15 14 13 14 13 12 11 10 8 9 13 10 9 9 11 12 13 12 12 11 11 8 6 4 5 3 4 7 6 12 17 7 3 4 8
18 18 17 15 17 18 17 17 17 17 14 10 14 15 13 11 10 13 12 10 10 10 12 12 13 12 10 8 6 5 2 1 2 5 4 5 9 8 12 6 7 1 6
17 15 14 13 12 15 15 15 16 17 16 12 11 9 11 10 12 19 14 10 10 12 13 12 12 11 9 6 2 0 2 3 5 7 11 13 16 13 23 9 6 2 5
17 15 12 10 8 11 18 18 15 15 14 11 13 13 16 15 15 16 12 11 12 14 14 13 12 9 7 5 4 6 5 2 8 6 11 14 17 11 12 8 4 3 7
16 15 14 11 8 14 24 28 16 18 14 15 15 14 14 15 14 13 11 14 14 14 14 14 11 8 7 4 5 4 4 7 11 9 12 14 15 14 11 3 3 4 8
14 14 14 14 12 8 18 25 10 12 13 7 14 16 18 17 14 12 12 14 14 14 15 14 10 8 7 8 5 3 6 8 9 9 12 12 14 11 7 3 1 2 6
13 14 14 13 10 1 10 12 14 15 12 11 14 17 16 15 11 10 11 14 14 15 16 13 10 5 4 4 4 5 7 9 13 8 11 13 14 9 6 3 2 3 6
12 13 14 14 12 11 9 8 11 18 13 17 18 18 18 14 11 11 13 14 14 16 16 14 9 5 3 4 6 7 8 12 15 10 8 12 11 7 5 6 2 3 5
10 14 15 16 15 12 9 10 13 16 20 21 22 20 19 11 13 13 14 14 14 14 14 13 8 3 4 7 10 11 11 9 12 9 10 11 11 7 7 6 3 4 4
8 11 16 18 18 14 11 12 17 22 21 23 20 19 15 12 13 13 14 13 12 13 12 10 7 1 3 5 11 8 10 10 10 10 9 9 10 9 8 8 7 7 8
6 10 18 21 18 16 15 16 18 21 23 24 21 17 14 13 13 13 13 12 10 11 10 8 5 3 4 5 10 3 9 11 6 9 9 11 9 11 10 9 8 8 9
10 12 19 22 18 16 19 19 21 23 20 21 19 14 14 13 12 12 11 10 10 9 8 6 4 1 3 4 8 6 9 9 3 6 7 9 9 11 11 11 10 10 9
11 14 17 18 18 17 23 22 22 21 21 19 16 14 13 12 11 11 11 10 9 7 7 7 4 1 3 6 8 7 6 6 2 5 8 6 8 9 10 8 9 9 8
12 14 16 17 16 17 21 20 22 21 18 16 13 14 12 11 11 10 11 10 8 7 6 7 6 5 5 6 10 9 2 7 5 2 7 4 7 6 9 9 9 9 8
15 16 17 16 16 16 19 20 22 21 18 17 13 14 11 10 10 10 11 11 9 8 8 9 8 7 7 5 4 6 5 4 9 4 4 3 4 4 5 6 8 8 8
12 13 14 14 18 17 13 19 23 17 16 15 16 13 11 10 10 10 11 11 9 10 7 7 9 7 4 3 3 3 4 4 5 8 6 6 7 6 5 4 4 5 7
12 13 13 13 16 15 12 17 23 17 12 14 14 12 10 10 12 9 10 12 13 12 9 7 6 6 6 1 1 3 2 8 2 2 4 6 7 7 7 4 6 5 6
12 11 15 15 16 18 18 22 20 14 12 12 10 11 13 9 8 9 10 11 9 11 10 7 7 6 5 2 1 2 2 1 2 5 3 3 5 5 7 7 3 6 7
12 11 13 19 19 20 20 19 17 17 16 13 13 13 12 11 9 8 11 11 11 10 9 8 7 6 6 4 2 2 2 1 3 4 5 3 3 4 2 5 6 5 6
15 12 13 18 19 19 19 16 16 16 16 16 14 10 11 12 11 10 12 11 13 11 10 9 9 8 9 7 4 3 1 1 1 2 1 6 6 5 4 5 8 6 4
16 14 15 14 15 16 17 17 17 16 15 16 16 15 13 13 12 12 11 11 11 10 10 9 9 10 12 9 7 4 5 2 3 2 2 5 6 12 9 8 6 4 6
Wind_Direction
177 176 173 166 158 157 155 153 152 146 135 139 136 138 140 138 140 145 140 140 127 130 139 146 142 143 152 149 141 128 107 89 82 87 104 127 152 184 174 181 178 185 183
185 181 175 172 169 168 162 162 163 157 151 151 144 145 142 142 150 155 157 156 163 134 140 146 147 148 144 132 124 113 102 96 87 78 76 86 131 187 199 180 177 186 186
183 186 184 172 173 173 170 171 171 166 164 162 156 148 146 149 152 152 154 125 137 134 141 148 149 143 138 130 120 116 111 95 81 75 69 49 348 221 212 195 192 188 191
186 190 187 176 175 175 176 175 174 171 168 167 163 152 153 161 159 153 127 127 132 155 148 148 147 140 133 126 122 117 110 100 85 66 50 30 343 320 218 203 199 204 203
203 193 188 183 180 177 178 181 178 178 174 175 170 178 170 171 165 162 132 121 144 161 148 151 141 134 131 126 122 114 112 101 71 45 19 16 332 330 179 206 211 211 219
195 193 194 189 185 174 180 190 188 189 188 187 182 169 177 173 167 145 138 159 156 157 147 147 132 131 131 130 126 115 111 104 93 329 351 324 306 298 214 199 212 224 249
180 197 199 197 197 189 192 193 191 193 197 185 195 176 177 187 172 140 138 159 155 148 137 132 133 131 133 134 124 122 105 82 342 325 320 324 289 333 175 198 189 38 308
186 201 206 219 212 212 203 209 206 200 191 190 193 195 171 163 161 138 156 151 137 137 134 137 144 138 138 130 120 195 328 360 348 322 316 304 327 330 327 198 192 118 8
195 209 219 215 226 247 225 220 211 199 184 181 183 179 157 145 148 154 151 152 143 140 137 141 143 140 129 102 68 35 353 41 10 22 349 330 334 338 349 172 124 165 83
203 210 219 230 236 284 233 233 200 188 174 167 153 153 158 149 148 143 139 142 145 140 141 142 141 124 101 111 79 46 48 13 17 353 349 338 351 0 19 83 108 122 135
214 219 220 225 252 277 236 224 205 191 178 202 158 156 149 147 146 138 139 140 146 147 144 150 138 120 111 83 73 11 352 359 359 356 357 350 355 11 11 25 4 181 169
224 229 229 227 212 76 161 223 191 195 174 177 156 148 141 137 132 148 149 148 152 153 148 150 141 123 129 30 8 357 4 9 8 357 0 359 354 3 15 35 136 199 170
225 223 223 216 211 204 200 192 184 188 172 159 154 151 153 146 159 165 157 155 156 157 155 151 145 112 81 47 14 9 5 6 15 14 14 2 358 12 34 46 85 146 151
225 231 217 212 205 196 197 172 163 168 167 157 155 155 153 160 161 168 163 163 162 163 160 159 135 106 65 22 360 354 5 17 18 26 25 8 17 44 60 62 74 106 121
217 200 196 200 193 183 173 163 154 152 156 159 152 155 166 167 164 172 167 168 163 169 167 166 163 162 343 338 347 355 24 9 19 30 26 35 45 65 67 76 87 106 111
184 180 179 190 182 174 170 164 161 153 151 159 158 160 170 171 169 175 174 170 170 174 176 187 189 248 6 359 359 13 2 2 19 33 48 39 50 74 73 83 93 99 101
123 166 175 179 175 175 163 159 158 150 155 161 165 167 170 174 171 178 178 178 181 183 187 201 217 295 350 12 1 7 7 1 25 27 33 21 47 67 70 75 82 89 91
140 148 166 171 177 179 167 165 155 157 161 163 165 169 174 173 174 180 186 192 190 195 203 220 232 254 10 339 345 352 354 9 30 39 34 26 46 66 71 71 78 80 85
144 147 171 175 179 176 174 168 163 164 165 160 168 177 176 175 184 186 195 203 204 213 217 224 230 248 324 344 354 352 323 48 44 13 18 33 55 57 64 65 70 70 70
119 127 144 169 178 180 170 164 161 160 168 170 179 177 180 178 193 193 201 208 212 231 241 226 242 264 287 305 345 39 92 36 25 26 10 23 32 21 64 67 64 67 62
154 138 130 124 149 136 170 178 171 159 174 177 176 179 179 189 199 210 210 209 216 224 236 242 251 274 302 324 33 325 77 9 2 44 64 57 33 30 48 63 52 65 49
184 177 164 158 155 144 150 171 171 163 173 188 188 197 202 198 207 217 229 229 237 239 240 240 247 279 291 311 67 80 300 343 58 57 56 42 26 34 37 46 45 44 31
196 189 183 177 177 183 166 161 167 188 208 198 198 208 204 196 200 219 221 227 242 229 241 245 266 270 271 271 227 119 126 248 279 307 312 306 353 23 44 49 49 16 18
200 204 197 183 182 184 191 190 193 192 189 192 207 210 214 213 212 212 222 245 224 231 235 245 258 274 264 275 263 23 111 217 180 285 310 284 332 342 346 7 18 14 10
208 216 214 193 185 191 199 199 199 204 208 204 195 209 219 229 221 224 236 242 224 231 238 253 266 273 272 261 251 256 249 342 276 196 233 324 324 300 306 315 335 354 341
199 206 214 215 204 203 203 204 203 203 209 213 213 218 217 230 235 237 240 231 235 239 243 250 263 267 262 260 263 260 259 247 279 253 270 306 280 286 280 283 311 302 330
Height
3185 3187 3189 3190 3191 3194 3195 3198 3198 3200 3201 3201 3201 3203 3204 3205 3205 3206 3206 3207 3207 3208 3209 3210 3210 3210 3211 3212 3212 3213 3213 3213 3213 3214 3214 3214 3214 3214 3214 3215 3216 3217 3218
3185 3187 3189 3190 3192 3194 3196 3197 3199 3200 3202 3202 3203 3204 3204 3205 3206 3207 3207 3207 3208 3209 3210 3211 3211 3211 3212 3213 3214 3215 3215 3215 3215 3215 3215 3216 3214 3214 3215 3215 3215 3216 3218
3185 3187 3188 3190 3193 3195 3197 3198 3200 3200 3202 3203 3204 3204 3205 3207 3207 3208 3208 3208 3208 3210 3211 3212 3213 3213 3214 3215 3216 3217 3217 3218 3218 3216 3218 3216 3215 3214 3214 3215 3214 3215 3216
3185 3187 3188 3190 3193 3195 3197 3198 3199 3200 3201 3203 3203 3203 3205 3207 3208 3208 3209 3210 3211 3212 3212 3213 3214 3215 3215 3216 3217 3219 3219 3219 3218 3218 3218 3217 3215 3214 3214 3214 3215 3215 3215
3184 3187 3187 3189 3191 3193 3196 3198 3199 3200 3201 3202 3203 3203 3204 3206 3207 3208 3209 3210 3212 3213 3213 3214 3215 3216 3217 3218 3219 3220 3220 3220 3219 3219 3219 3216 3215 3216 3214 3213 3214 3215 3214
3180 3185 3185 3187 3190 3190 3194 3195 3197 3199 3200 3200 3202 3202 3204 3205 3206 3208 3211 3209 3212 3214 3215 3217 3218 3218 3219 3220 3221 3222 3222 3222 3221 3222 3220 3217 3216 3211 3211 3211 3212 3213 3213
3181 3183 3187 3188 3189 3190 3191 3192 3194 3197 3196 3197 3199 3201 3204 3205 3206 3209 3210 3211 3213 3216 3217 3219 3220 3220 3221 3222 3223 3223 3224 3224 3223 3222 3220 3217 3208 3212 3213 3210 3210 3211 3211
3182 3184 3187 3188 3189 3191 3191 3193 3194 3195 3197 3199 3200 3199 3202 3206 3208 3210 3210 3212 3215 3217 3219 3220 3222 3222 3223 3225 3225 3224 3225 3225 3224 3222 3219 3215 3205 3210 3210 3210 3205 3208 3208
3182 3184 3185 3188 3190 3191 3192 3191 3190 3193 3196 3198 3198 3200 3204 3207 3209 3211 3212 3214 3216 3218 3220 3222 3223 3224 3225 3226 3227 3226 3225 3225 3224 3222 3218 3214 3210 3210 3209 3209 3209 3208 3210
3182 3184 3185 3187 3188 3188 3188 3190 3187 3187 3195 3197 3198 3201 3205 3207 3210 3212 3213 3216 3218 3220 3222 3224 3225 3226 3227 3226 3227 3227 3226 3226 3224 3222 3218 3214 3212 3209 3211 3210 3210 3210 3212
3182 3184 3185 3187 3188 3186 3184 3188 3188 3191 3197 3196 3199 3203 3205 3208 3210 3212 3215 3217 3220 3222 3224 3225 3226 3227 3228 3228 3228 3228 3227 3226 3224 3221 3218 3215 3213 3212 3212 3211 3210 3210 3212
3181 3182 3183 3185 3187 3187 3184 3189 3190 3193 3197 3198 3201 3202 3207 3210 3211 3213 3216 3219 3221 3223 3225 3226 3227 3229 3228 3229 3229 3228 3227 3225 3223 3221 3218 3216 3213 3212 3212 3211 3211 3211 3212
3179 3180 3181 3183 3185 3187 3187 3188 3189 3193 3197 3199 3202 3205 3208 3210 3213 3215 3217 3220 3222 3224 3226 3227 3228 3229 3229 3229 3229 3229 3227 3225 3223 3220 3218 3217 3214 3212 3211 3210 3211 3211 3211
3177 3177 3180 3182 3184 3186 3188 3188 3190 3193 3196 3200 3204 3206 3209 3211 3213 3216 3219 3221 3223 3225 3227 3228 3229 3230 3229 3229 3229 3228 3227 3225 3223 3221 3219 3218 3215 3213 3212 3211 3212 3212 3212
3174 3175 3177 3181 3184 3186 3188 3189 3192 3195 3198 3202 3205 3207 3210 3212 3214 3217 3219 3222 3224 3226 3228 3229 3230 3231 3230 3229 3229 3228 3227 3226 3224 3222 3221 3220 3217 3215 3214 3212 3213 3213 3213
3172 3173 3176 3180 3183 3185 3187 3190 3193 3196 3200 3203 3206 3208 3211 3213 3215 3218 3220 3222 3224 3227 3229 3230 3231 3231 3230 3230 3229 3227 3227 3226 3225 3223 3222 3221 3219 3217 3216 3215 3215 3215 3214
3173 3174 3177 3180 3183 3185 3188 3191 3195 3198 3202 3205 3207 3209 3211 3213 3216 3219 3221 3223 3225 3227 3229 3230 3231 3231 3231 3231 3230 3229 3227 3226 3225 3224 3223 3222 3221 3218 3217 3218 3217 3217 3217
3175 3177 3179 3181 3184 3187 3188 3192 3196 3199 3202 3205 3208 3210 3212 3214 3217 3219 3222 3224 3226 3228 3229 3230 3231 3231 3231 3231 3230 3229 3228 3226 3225 3225 3224 3223 3222 3221 3220 3220 3220 3219 3219
3176 3178 3180 3182 3184 3187 3190 3192 3196 3200 3203 3206 3208 3211 3213 3215 3217 3220 3222 3224 3226 3228 3229 3231 3231 3231 3231 3231 3231 3228 3227 3226 3226 3226 3225 3225 3225 3224 3222 3222 3221 3221 3220
3180 3179 3181 3183 3185 3188 3191 3194 3198 3201 3203 3206 3209 3211 3213 3216 3218 3220 3222 3225 3226 3228 3229 3230 3231 3230 3230 3231 3231 3229 3228 3227 3227 3226 3226 3226 3226 3226 3224 3223 3223 3222 3222
3182 3183 3183 3184 3186 3189 3192 3195 3198 3201 3204 3206 3209 3211 3213 3216 3218 3220 3222 3224 3225 3227 3228 3228 3229 3230 3230 3230 3230 3232 3229 3229 3228 3227 3227 3227 3227 3226 3225 3225 3224 3223 3223
3183 3184 3185 3187 3189 3190 3192 3195 3198 3201 3204 3208 3210 3211 3213 3215 3216 3219 3221 3223 3225 3226 3227 3228 3229 3229 3229 3229 3229 3230 3233 3230 3230 3229 3228 3228 3228 3227 3226 3225 3224 3224 3224
3181 3184 3186 3187 3189 3193 3195 3198 3200 3203 3205 3208 3209 3211 3212 3214 3215 3218 3220 3221 3223 3225 3226 3228 3228 3228 3228 3229 3229 3230 3230 3231 3231 3229 3229 3229 3229 3228 3227 3226 3225 3225 3224
3180 3182 3185 3186 3189 3192 3195 3198 3201 3203 3205 3207 3208 3209 3211 3213 3215 3216 3218 3220 3221 3223 3225 3226 3228 3228 3228 3228 3228 3229 3229 3230 3234 3231 3230 3229 3229 3228 3227 3227 3226 3225 3225
3179 3181 3183 3185 3187 3190 3193 3196 3199 3202 3204 3205 3206 3208 3210 3212 3214 3215 3217 3218 3219 3220 3222 3224 3225 3226 3226 3227 3227 3228 3228 3229 3229 3232 3234 3229 3229 3228 3227 3227 3226 3225 3225
3177 3179 3181 3184 3185 3188 3191 3194 3196 3199 3202 3203 3205 3206 3209 3211 3212 3214 3215 3217 3218 3219 3220 3221 3223 3224 3225 3225 3226 3226 3227 3229 3232 3231 3232 3231 3230 3227 3226 3227 3226 3225 3225